Location: Caltech
(34.1382°N, 118.1253°W)
Time: 23:08:18
(UTC-07:00)

SEDSat Delta rocket - Visible Passes

Search period start: 28 August 2015 00:00
Search period end: 07 September 2015 00:00
Orbit: 533 x 1005 km, 31.4° (Epoch: 27 August)

Date Brightness Start Highest point End Pass type
(mag) Time Alt. Az. Time Alt. Az. Time Alt. Az.
28 Aug 4.0 04:06:20 45° SE 04:06:20 45° SE 04:10:37 10° E visible
28 Aug 3.6 05:46:35 10° W 05:51:37 67° S 05:57:27 10° E visible
29 Aug 5.4 03:28:43 19° E 03:28:43 19° E 03:30:23 10° E visible
29 Aug 3.4 05:08:54 26° WSW 05:11:38 66° S 05:17:10 10° E visible
30 Aug 3.2 04:31:19 62° SSW 04:31:42 65° S 04:36:56 10° E visible
31 Aug 4.5 03:53:48 33° ESE 03:53:48 33° ESE 03:56:45 10° E visible
31 Aug 3.6 05:33:58 15° W 05:37:54 53° S 05:43:18 10° ESE visible
01 Sep 6.0 03:16:19 11° E 03:16:19 11° E 03:16:36 10° E visible
01 Sep 3.4 04:56:30 38° WSW 04:57:58 55° S 05:03:06 10° ESE visible
02 Sep 3.8 04:19:07 46° SE 04:19:07 46° SE 04:22:57 10° ESE visible
02 Sep 4.4 05:59:52 10° W 06:04:05 30° SSW 06:08:48 10° SE visible
03 Sep 5.5 03:41:47 16° ESE 03:41:47 16° ESE 03:42:51 10° ESE visible
03 Sep 4.1 05:21:59 22° WSW 05:24:10 32° SSW 05:28:46 10° SE visible
04 Sep 3.9 04:44:46 34° S 04:44:46 34° S 04:48:44 10° SE visible
05 Sep 5.3 04:07:38 16° SE 04:07:38 16° SE 04:08:45 10° SE visible
05 Sep 5.0 05:47:50 10° WSW 05:50:17 14° SSW 05:52:52 10° S visible
06 Sep 4.9 05:10:48 15° SSW 05:10:48 15° SSW 05:13:12 10° SSE visible
